{"data":{"norad_id":67791,"intl_designator":"2026-030AD","name":"KUIPER-00270","alt_names":[],"object_type":"PAYLOAD","status":"ACTIVE","operator":null,"country":"US","launch_date":"2026-02-12","launch_site_code":"FRGUI","launch_vehicle":null,"mission":null,"orbit_class":"UNKNOWN","rcs_meters":null,"size_class":null,"mass_kg":null,"dimensions":null,"purposes":[],"wikipedia_slug":null,"has_3d_model":false,"image_url":null,"decayed_at":null,"tle_current":{"epoch":"2026-09-20T15:29:36.088512Z","epoch_age_seconds":74097,"freshness":"FRESH","line1":"1 67791U 26030AD  26263.64555658  .00002128  00000+0  30803-3 0  9993","line2":"2 67791  51.8991  38.5189 0000598 106.6485 253.4543 14.79929364 34503","mean_motion":14.79929364,"eccentricity":5.98e-5,"inclination_deg":51.8991,"raan_deg":38.5189,"arg_perigee_deg":106.6485,"mean_anomaly_deg":253.4543,"bstar":0.00030803,"rev_number":3450,"period_min":97.301941229676,"perigee_km":629.12804763988,"apogee_km":629.9661666591,"semimajor_km":7007.6841071495,"source":"CELESTRAK","updated_at":"2026-09-21T09:00:16.858099Z"}}}